Content
SEND FEEDBACK

Daily
Averages
Monthly
Summary
United States of America

ORANGE, TEXAS


Home > North America > United States > Texas
Elevation: 1 foot     Latitude: 30 07N     Longitude: 093 47W

WEATHER
 
SELECT A DAY
Number of Records: 113,966;   Date Range: 8/25/05 - 10/1/14
 
SHARE

PRINT THIS DATA

[ ← Previous Day ]
WEATHER ALMANAC - FEBRUARY 8, 2013
[ Next Day → ]
[ °C ]   °F
Weather ElementAverageHighLow
Temperature59.3 °F66.2 °F (1:15 pm)51.8 °F (10:55 pm)
Dewpoint54.9 °F60.8 °F (12:55 am)50 °F (10:35 pm)
Humidity86.1 %100 % (12:55 am)68 % (12:35 pm)
Barometer30.12 in30.18 in (9:35 pm)30.00 in (1:15 am)
Wind Speed7.1 mph12.7 mph (7:15 am)
Wind Gust18.4 mph (6:55 am)
Weather ElementAverage
Visibility9.3 mi
Wind DirectionSSW (197.1 °)

Weather ElementTotal
Precipitation---
Heating Degree Days6 (Base 65)
Growing Degree Days9 (Base 50)
Averaged from 69 records on February 8, 2013
WEATHER CONDITIONS BREAKOUT
WIND DIRECTION BREAKOUT
WEATHER BY HOUR - FEBRUARY 8, 2013
[ °C ]   °F
Local TimeTemperatureDewpointHumidityBarometerVisibilityWind DirectionWind SpeedGust SpeedPrecipitationEventsConditions
12:55 AM60.8 °F60.8 °F100 %30.01 in5.0 miCalmOvercast
1:15 AM60.8 °F60.8 °F100 %30.00 in5.0 miCalmOvercast
1:35 AM60.8 °F60.8 °F100 %30.01 in7.0 miCalmOvercast
1:55 AM60.8 °F60.8 °F100 %30.00 in7.0 miCalmOvercast
2:15 AM60.8 °F60.8 °F100 %30.00 in5.0 miCalmOvercast
2:35 AM60.8 °F60.8 °F100 %30.01 in5.0 miCalmOvercast
2:55 AM60.8 °F60.8 °F100 %30.01 in5.0 miCalmOvercast
3:15 AM60.8 °F60.8 °F100 %30.01 in5.0 miCalmOvercast
3:35 AM60.8 °F60.8 °F100 %30.02 in5.0 miWSW (250°)3.5 mphOvercast
3:55 AM60.8 °F60.8 °F100 %30.02 in7.0 miWest (280°)4.6 mphOvercast
4:15 AM60.8 °F60.8 °F100 %30.03 in7.0 miWNW (290°)5.8 mphOvercast
4:35 AM60.8 °F60.8 °F100 %30.03 in10.0 miWNW (300°)8.1 mphOvercast
4:55 AM60.8 °F59.0 °F94 %30.03 in10.0 miNW (320°)5.8 mphOvercast
5:15 AM60.8 °F59.0 °F94 %30.04 in10.0 miNW (320°)9.2 mphOvercast
5:55 AM59.0 °F57.2 °F94 %30.05 in10.0 miNW (310°)8.1 mphOvercast
6:15 AM59.0 °F55.4 °F88 %30.07 in10.0 miNW (310°)11.5 mph16.1 mphOvercast
6:35 AM57.2 °F55.4 °F94 %30.08 in10.0 miNW (310°)5.8 mphOvercast
6:55 AM57.2 °F55.4 °F94 %30.08 in10.0 miNW (320°)10.4 mph18.4 mphOvercast
7:15 AM57.2 °F55.4 °F94 %30.09 in10.0 miNNW (330°)12.7 mphOvercast
7:35 AM57.2 °F55.4 °F94 %30.10 in10.0 miNNW (340°)10.4 mph18.4 mphOvercast
7:55 AM57.2 °F53.6 °F88 %30.12 in10.0 miNNW (330°)8.1 mph16.1 mphOvercast
8:15 AM57.2 °F53.6 °F88 %30.13 in10.0 miNW (320°)11.5 mphOvercast
8:35 AM57.2 °F53.6 °F88 %30.14 in10.0 miNW (320°)10.4 mphOvercast
8:55 AM57.2 °F53.6 °F88 %30.15 in10.0 miNNW (340°)9.2 mphOvercast
9:15 AM57.2 °F53.6 °F88 %30.15 in10.0 miNNW (330°)9.2 mphOvercast
9:35 AM59.0 °F53.6 °F82 %30.16 in10.0 miNNW (330°)11.5 mphOvercast
9:55 AM59.0 °F53.6 °F82 %30.16 in10.0 miNNW (330°)8.1 mphOvercast
10:15 AM59.0 °F53.6 °F82 %30.17 in10.0 miNNW (340°)11.5 mph17.3 mphOvercast
10:35 AM59.0 °F53.6 °F82 %30.17 in10.0 miNorth (350°)9.2 mph16.1 mphOvercast
10:55 AM59.0 °F53.6 °F82 %30.17 in10.0 miNorth (350°)9.2 mphOvercast
11:15 AM60.8 °F53.6 °F77 %30.17 in10.0 miNorth (360°)9.2 mphOvercast
11:35 AM62.6 °F53.6 °F72 %30.17 in10.0 miNNW (340°)10.4 mphOvercast
11:55 AM62.6 °F55.4 °F77 %30.16 in10.0 miNNW (340°)5.8 mphMostly Cloudy
12:15 PM64.4 °F55.4 °F73 %30.16 in10.0 miNNW (330°)8.1 mphMostly Cloudy
12:35 PM64.4 °F53.6 °F68 %30.15 in10.0 miNNW (330°)8.1 mphMostly Cloudy
12:55 PM64.4 °F53.6 °F68 %30.14 in10.0 miNNW (340°)8.1 mphOvercast
1:15 PM66.2 °F55.4 °F68 %30.13 in10.0 miNNW (340°)6.9 mphOvercast
1:35 PM66.2 °F55.4 °F68 %30.13 in10.0 miNorth (10°)8.1 mphOvercast
1:55 PM66.2 °F55.4 °F68 %30.12 in10.0 miNNW (340°)9.2 mphOvercast
2:15 PM66.2 °F55.4 °F68 %30.12 in10.0 miNNW (330°)9.2 mphMostly Cloudy
2:35 PM66.2 °F55.4 °F68 %30.12 in10.0 miNorth (350°)11.5 mphScattered Clouds
2:55 PM64.4 °F53.6 °F68 %30.12 in10.0 miNorth (10°)11.5 mph16.1 mphScattered Clouds
3:15 PM64.4 °F53.6 °F68 %30.12 in10.0 miNorth (350°)8.1 mphMostly Cloudy
3:35 PM64.4 °F53.6 °F68 %30.12 in10.0 miNNE (30°)9.2 mphMostly Cloudy
3:55 PM64.4 °F53.6 °F68 %30.12 in10.0 miNorth (360°)6.9 mphMostly Cloudy
4:15 PM62.6 °F53.6 °F72 %30.13 in10.0 miNNE (20°)6.9 mphOvercast
4:35 PM62.6 °F53.6 °F72 %30.13 in10.0 miNorth (360°)6.9 mphOvercast
4:55 PM62.6 °F53.6 °F72 %30.13 in10.0 miNorth (360°)6.9 mphOvercast
5:15 PM62.6 °F53.6 °F72 %30.13 in10.0 miNorth (10°)6.9 mphMostly Cloudy
5:35 PM60.8 °F53.6 °F77 %30.14 in10.0 miNorth (10°)9.2 mphScattered Clouds
5:55 PM59.0 °F53.6 °F82 %30.14 in10.0 miNorth (360°)5.8 mphClear
6:15 PM59.0 °F53.6 °F82 %30.15 in10.0 miNorth (360°)5.8 mphScattered Clouds
6:35 PM57.2 °F53.6 °F88 %30.16 in10.0 miNorth (360°)3.5 mphMostly Cloudy
6:55 PM55.4 °F53.6 °F94 %30.16 in10.0 miNorth (10°)3.5 mphClear
7:15 PM55.4 °F53.6 °F94 %30.16 in10.0 miNorth (10°)5.8 mphClear
7:35 PM55.4 °F53.6 °F94 %30.15 in10.0 miNNE (20°)8.1 mphClear
7:55 PM55.4 °F51.8 °F88 %30.16 in10.0 miNNE (20°)5.8 mphClear
8:15 PM55.4 °F51.8 °F88 %30.17 in10.0 miNNE (30°)6.9 mphClear
8:35 PM55.4 °F51.8 °F88 %30.16 in10.0 miNNE (30°)5.8 mphClear
8:55 PM53.6 °F51.8 °F94 %30.17 in10.0 miNNE (30°)5.8 mphScattered Clouds
9:15 PM53.6 °F51.8 °F94 %30.17 in10.0 miNE (40°)6.9 mphScattered Clouds
9:35 PM53.6 °F51.8 °F94 %30.18 in10.0 miNNE (30°)6.9 mphScattered Clouds
9:55 PM53.6 °F51.8 °F94 %30.17 in10.0 miNNE (30°)9.2 mphClear
10:15 PM53.6 °F51.8 °F94 %30.16 in10.0 miNE (40°)12.7 mph18.4 mphClear
10:35 PM53.6 °F50.0 °F88 %30.15 in10.0 miNE (50°)11.5 mph17.3 mphClear
10:55 PM51.8 °F50.0 °F94 %30.16 in10.0 miNE (50°)9.2 mphClear
11:15 PM51.8 °F50.0 °F94 %30.17 in10.0 miENE (70°)5.8 mphClear
11:35 PM51.8 °F50.0 °F94 %30.17 in10.0 miENE (60°)4.6 mphClear
11:55 PM51.8 °F50.0 °F94 %30.17 in10.0 miENE (60°)5.8 mphClear
Hourly data recorded from KORG, located miles away from Orange, Texas







STORIES FROM OUR PARTNERS